Overview Statistics Trail Chart Weather Telemetry Raw packets
 

This is the latest recevied weather packets stored in our database for station/object TONGUE. If no packets are shown the sender has not sent any weather packets the latest 10 day(s).

<< 18 19 20 21 22 23 24 >>
Time Temp. Humidity Pressure Rain* Wind** Luminosity Snow
1788200403 18.89° C 67% 0 hPa - - - -
1788199803 18.89° C 70% 0 hPa - - - -
1788199203 18.33° C 76% 0 hPa - - - -
1788198603 18.33° C 77% 0 hPa - - - -
1788198003 17.78° C 79% 0 hPa - - - -
1788197403 17.78° C 80% 0 hPa - - - -
1788196803 17.22° C 86% 0 hPa - - - -
1788196203 17.78° C 85% 0 hPa - - - -
1788195604 17.22° C 87% 0 hPa - - - -
1788195003 16.67° C 93% 0 hPa - - - -
1788193805 16.67° C 91% 0 hPa - - - -
1788193203 16.67° C 94% 0 hPa - - - -
1788192608 16.11° C 94% 0 hPa - - - -
1788192014 16.67° C 95% 0 hPa - - - -
1788191403 16.11° C 98% 0 hPa - - - -
1788190803 15.56° C 100% 0 hPa - - - -
1788190204 13.89° C 100% 0 hPa - - - -
1788189603 12.22° C 100% 0 hPa - - - -
1788189003 11.11° C 100% 0 hPa - - - -
1788188403 10.56° C 100% 0 hPa - - - -
1788187803 10.56° C 99% 0 hPa - - - -
1788187203 10° C 99% 0 hPa - - - -
1788186603 10° C 100% 0 hPa - - - -
1788186003 10° C 100% 0 hPa - - - -
1788185403 10° C 100% 0 hPa - - - -

* Rain since midnight (hover to see other rain measurements)
** Current wind speed in m/s (hover to see current wind gust speed)